When you browse on this site, cookies collect data to enhance your experience and personalize the content and advertising you see.
Visit our Privacy Policy to learn more. By continuing to use the site, you agree to this use of cookies and data.
  • In Switzerland
  • List of Countries
  • For 7 days
  • Water Temperature
  • Satellite Maps
  • Weather Map
  • Weather Widgets
  • user-avatar
    Login

    Hourly Weather Mieleszyn

    Today, 21 February, Thursday

    Time Temperature Precipitation Wind Pressure Humidity
    00:00 +4°C° 0 mm 3 mps 750 mmHg 84%
    01:00 +4°C° 0 mm 3 mps 750 mmHg 85%
    02:00 +4°C° 0 mm 3 mps 750 mmHg 85%
    03:00 +4°C° 0 mm 3 mps 750 mmHg 86%
    04:00 +4°C° 0 mm 4 mps 750 mmHg 86%
    05:00 +3°C° 0 mm 4 mps 750 mmHg 88%
    06:00 +3°C° 0 mm 4 mps 750 mmHg 89%
    07:00 +1°C° 0 mm 4 mps 750 mmHg 90%
    08:00 +3°C° 0 mm 4 mps 750 mmHg 85%
    09:00 +3°C° 0 mm 5 mps 750 mmHg 80%
    10:00 +5°C° 0 mm 5 mps 750 mmHg 75%
    11:00 +5°C° 0.1 mm 5 mps 750 mmHg 75%
    12:00 +6°C° 0.1 mm 5 mps 749 mmHg 76%
    13:00 +6°C° 0.1 mm 5 mps 749 mmHg 77%
    14:00 +5°C° 0.7 mm 5 mps 749 mmHg 78%
    15:00 +4°C° 0.7 mm 6 mps 749 mmHg 80%
    16:00 +4°C° 0.7 mm 6 mps 748 mmHg 82%
    17:00 +4°C° 0.5 mm 6 mps 748 mmHg 83%
    18:00 +5°C° 0.5 mm 5 mps 748 mmHg 85%
    19:00 +5°C° 0.5 mm 5 mps 748 mmHg 86%
    20:00 +5°C° 0.2 mm 5 mps 748 mmHg 88%
    21:00 +4°C° 0.2 mm 6 mps 748 mmHg 89%
    22:00 +4°C° 0.2 mm 6 mps 747 mmHg 90%
    23:00 +4°C° 0.3 mm 6 mps 747 mmHg 91%

    Tomorrow, 22 February, Friday

    Time Temperature Precipitation Wind Pressure Humidity
    00:00 +5°C° 0.3 mm 5 mps 747 mmHg 93%
    01:00 +6°C° 0.3 mm 5 mps 747 mmHg 94%
    02:00 +5°C° 0.6 mm 5 mps 748 mmHg 93%
    03:00 +4°C° 0.6 mm 6 mps 748 mmHg 92%
    04:00 +3°C° 0.6 mm 6 mps 749 mmHg 91%
    05:00 +2°C° 0.1 mm 6 mps 750 mmHg 87%
    06:00 -1°C° 0.1 mm 7 mps 751 mmHg 82%
    07:00 -2°C° 0.1 mm 8 mps 753 mmHg 78%
    08:00 -3°C° 0 mm 7 mps 754 mmHg 71%
    09:00 -3°C° 0 mm 7 mps 755 mmHg 64%
    10:00 -3°C° 0 mm 6 mps 757 mmHg 57%
    11:00 -3°C° 0 mm 6 mps 757 mmHg 53%
    12:00 -2°C° 0 mm 6 mps 758 mmHg 48%
    13:00 -2°C° 0 mm 6 mps 759 mmHg 44%
    14:00 -1°C° 0 mm 5 mps 759 mmHg 42%
    15:00 -2°C° 0 mm 5 mps 760 mmHg 41%
    16:00 -2°C° 0 mm 5 mps 760 mmHg 40%
    17:00 -2°C° 0 mm 5 mps 761 mmHg 42%
    18:00 -4°C° 0 mm 5 mps 761 mmHg 44%
    19:00 -4°C° 0 mm 4 mps 762 mmHg 46%
    20:00 -4°C° 0 mm 4 mps 762 mmHg 46%
    21:00 -4°C° 0 mm 4 mps 763 mmHg 45%
    22:00 -4°C° 0 mm 4 mps 763 mmHg 44%
    23:00 -4°C° 0 mm 3 mps 763 mmHg 43%

    Day after tomorrow, 23 February, Saturday

    Time Temperature Precipitation Wind Pressure Humidity
    00:00 -4°C° 0 mm 3 mps 764 mmHg 42%
    01:00 -4°C° 0 mm 3 mps 764 mmHg 41%
    02:00 -5°C° 0 mm 3 mps 764 mmHg 40%
    03:00 -4°C° 0 mm 2 mps 764 mmHg 40%
    04:00 -4°C° 0 mm 2 mps 763 mmHg 39%
    05:00 -4°C° 0 mm 2 mps 764 mmHg 39%
    06:00 -4°C° 0 mm 2 mps 764 mmHg 39%
    07:00 -4°C° 0 mm 2 mps 764 mmHg 39%
    08:00 -4°C° 0 mm 2 mps 764 mmHg 36%
    09:00 -3°C° 0 mm 2 mps 764 mmHg 33%
    10:00 -2°C° 0 mm 2 mps 765 mmHg 30%
    11:00 -2°C° 0 mm 2 mps 764 mmHg 28%
    12:00 -1°C° 0 mm 2 mps 764 mmHg 25%
    13:00 -1°C° 0 mm 2 mps 764 mmHg 23%
    14:00 -1°C° 0 mm 2 mps 764 mmHg 24%
    15:00 +1°C° 0 mm 1 mps 763 mmHg 25%
    16:00 +1°C° 0 mm 1 mps 763 mmHg 26%
    17:00 +1°C° 0 mm 1 mps 763 mmHg 29%
    18:00 0°C° 0 mm 1 mps 763 mmHg 32%
    19:00 -1°C° 0 mm 1 mps 763 mmHg 35%
    20:00 -1°C° 0 mm 1 mps 763 mmHg 35%
    21:00 -1°C° 0 mm 1 mps 763 mmHg 35%
    22:00 -1°C° 0 mm 1 mps 763 mmHg 35%
    23:00 -1°C° 0 mm 1 mps 763 mmHg 35%

    24 February, Sunday

    Time Temperature Precipitation Wind Pressure Humidity
    00:00 -1°C° 0 mm 1 mps 762 mmHg 35%
    01:00 -1°C° 0 mm 1 mps 762 mmHg 35%
    02:00 -1°C° 0 mm 1 mps 762 mmHg 35%
    03:00 -1°C° 0 mm 1 mps 761 mmHg 36%
    04:00 -1°C° 0 mm 1 mps 761 mmHg 36%
    05:00 -1°C° 0 mm 1 mps 761 mmHg 36%
    06:00 -2°C° 0 mm 2 mps 761 mmHg 36%
    07:00 -2°C° 0 mm 2 mps 761 mmHg 35%
    08:00 -1°C° 0 mm 2 mps 761 mmHg 33%
    09:00 +1°C° 0 mm 2 mps 760 mmHg 30%
    10:00 +2°C° 0 mm 2 mps 760 mmHg 28%
    11:00 +2°C° 0 mm 2 mps 760 mmHg 29%
    12:00 +2°C° 0 mm 3 mps 760 mmHg 30%
    13:00 +2°C° 0 mm 3 mps 760 mmHg 31%
    14:00 +2°C° 0 mm 3 mps 759 mmHg 36%
    15:00 +3°C° 0 mm 2 mps 759 mmHg 42%
    16:00 +3°C° 0 mm 2 mps 759 mmHg 47%
    17:00 +2°C° 0 mm 2 mps 759 mmHg 52%
    18:00 +2°C° 0 mm 2 mps 759 mmHg 57%
    19:00 +1°C° 0 mm 2 mps 759 mmHg 62%
    20:00 +1°C° 0 mm 2 mps 759 mmHg 67%
    21:00 -1°C° 0 mm 2 mps 759 mmHg 72%
    22:00 -1°C° 0 mm 2 mps 759 mmHg 76%
    23:00 -1°C° 0 mm 2 mps 759 mmHg 80%

    25 February, Monday

    Time Temperature Precipitation Wind Pressure Humidity
    00:00 -1°C° 0 mm 2 mps 759 mmHg 84%
    01:00 -1°C° 0 mm 2 mps 759 mmHg 88%
    02:00 -1°C° 0 mm 2 mps 759 mmHg 90%
    03:00 -1°C° 0 mm 2 mps 758 mmHg 91%
    04:00 -2°C° 0 mm 2 mps 758 mmHg 93%
    05:00 -2°C° 0 mm 2 mps 758 mmHg 93%
    06:00 -2°C° 0 mm 2 mps 759 mmHg 94%
    07:00 -2°C° 0 mm 2 mps 759 mmHg 94%
    08:00 -1°C° 0 mm 2 mps 759 mmHg 90%
    09:00 +2°C° 0 mm 2 mps 759 mmHg 86%
    10:00 +3°C° 0 mm 2 mps 760 mmHg 82%
    11:00 +4°C° 0 mm 2 mps 760 mmHg 80%
    12:00 +5°C° 0 mm 2 mps 760 mmHg 79%
    13:00 +6°C° 0 mm 1 mps 760 mmHg 78%
    14:00 +7°C° 0 mm 1 mps 760 mmHg 78%
    15:00 +7°C° 0 mm 1 mps 760 mmHg 79%
    16:00 +7°C° 0 mm 1 mps 759 mmHg 79%
    17:00 +6°C° 0 mm 1 mps 759 mmHg 83%
    18:00 +5°C° 0 mm 1 mps 760 mmHg 86%
    19:00 +5°C° 0 mm 1 mps 760 mmHg 89%
    20:00 +4°C° 0 mm 1 mps 760 mmHg 90%
    21:00 +3°C° 0 mm 1 mps 760 mmHg 90%
    22:00 +2°C° 0 mm 0 mps 760 mmHg 91%
    23:00 +3°C° 0 mm 1 mps 759 mmHg 91%

    26 February, Tuesday

    Time Temperature Precipitation Wind Pressure Humidity
    00:00 +2°C° 0 mm 1 mps 759 mmHg 91%
    01:00 +2°C° 0 mm 1 mps 759 mmHg 90%
    02:00 +2°C° 0 mm 1 mps 758 mmHg 91%
    03:00 +1°C° 0 mm 2 mps 758 mmHg 91%
    04:00 +1°C° 0 mm 2 mps 757 mmHg 92%
    05:00 +1°C° 0 mm 2 mps 757 mmHg 92%
    06:00 +1°C° 0 mm 2 mps 757 mmHg 93%
    07:00 0°C° 0 mm 3 mps 756 mmHg 93%
    08:00 +1°C° 0 mm 3 mps 756 mmHg 88%
    09:00 +3°C° 0 mm 4 mps 756 mmHg 84%
    10:00 +4°C° 0 mm 4 mps 755 mmHg 79%
    11:00 +6°C° 0 mm 5 mps 755 mmHg 75%
    12:00 +7°C° 0 mm 5 mps 754 mmHg 70%
    13:00 +8°C° 0 mm 6 mps 754 mmHg 66%
    14:00 +8°C° 0 mm 6 mps 753 mmHg 64%
    15:00 +8°C° 0 mm 6 mps 753 mmHg 63%
    16:00 +8°C° 0 mm 6 mps 752 mmHg 62%
    17:00 +8°C° 0 mm 5 mps 753 mmHg 65%
    18:00 +7°C° 0 mm 5 mps 753 mmHg 67%
    19:00 +7°C° 0 mm 4 mps 753 mmHg 70%
    20:00 +6°C° 0 mm 4 mps 753 mmHg 74%
    21:00 +6°C° 0 mm 4 mps 753 mmHg 78%
    22:00 +5°C° 0 mm 4 mps 753 mmHg 82%
    23:00 +4°C° 0 mm 3 mps 753 mmHg 86%
    Show more